This demonstration page uses our WeatherBlox Daily Observations layout. Learn more.

Left ArrowRight Arrow

47.50024, -111.30081

Hourly Observations for July 17, 2020

Temp ( °F °C ) Dew Point ( °F °C ) Humidity (%) Winds ( mph kmh ) Pressure ( in mb ) Visibility ( mi km ) Precip ( " mm )
12:53 am 00:53 Clear 68 20 44 6.7 42 42 SSW 12 19 29.76 1008 10 16 0.00 0.00
1:53 am 01:53 Clear 65 18.3 45 7.2 49 49 WSW 10 17 29.77 1008 10 16 0.00 0.00
2:53 am 02:53 Clear 65 18.3 44 6.7 47 47 WSW 12 19 29.77 1008 10 16 0.00 0.00
3:53 am 03:53 Clear 66 18.9 44 6.7 45 45 SW 12 19 29.78 1008 10 16 0.00 0.00
4:53 am 04:53 Clear 66 18.9 44 6.7 45 45 SW 12 19 29.78 1008 10 16 0.00 0.00
5:53 am 05:53 Sunny 65 18.3 44 6.7 47 47 SW 12 19 29.79 1009 10 16 0.00 0.00
6:53 am 06:53 Sunny 66 18.9 45 7.2 47 47 SW 13 20 29.79 1009 10 16 0.00 0.00
7:53 am 07:53 Sunny 66 18.9 47 8.3 50 50 SW 12 19 29.81 1009 10 16 0.00 0.00
8:53 am 08:53 Sunny 68 20 49 9.4 51 51 SW 12 19 29.83 1010 10 16 0.00 0.00
9:53 am 09:53 Sunny 74 23.3 49 9.4 41 41 SW 14 22 29.83 1010 10 16 0.00 0.00
10:53 am 10:53 Sunny 76 24.4 46 7.8 35 35 SW 12 19 29.82 1010 10 16 0.00 0.00
11:53 am 11:53 Sunny 75 23.9 47 8.3 37 37 SW 9 15 29.83 1010 10 16 0.00 0.00
12:53 pm 12:53 Sunny 77 25 43 6.1 30 30 SW 10 17 29.80 1009 10 16 0.00 0.00
1:53 pm 13:53 Mostly Cloudy 77 25 45 7.2 32 32 SSW 6 9 29.80 1009 10 16 0.00 0.00
2:53 pm 14:53 Cloudy 76 24.4 45 7.2 33 33 SSW 6 9 29.78 1009 10 16 0.00 0.00
3:53 pm 15:53 Mostly Cloudy 77 25 44 6.7 31 31 WSW 18 30 29.77 1008 10 16 0.00 0.00
4:53 pm 16:53 Mostly Sunny 77 25 40 4.4 26 26 W 21 33 29.75 1007 10 16 0.00 0.00
5:53 pm 17:53 Partly Cloudy 75 23.9 38 3.3 26 26 W 15 24 29.75 1008 10 16 0.00 0.00
6:53 pm 18:53 Partly Cloudy 73 22.8 39 3.9 29 29 W 15 24 29.75 1007 10 16 0.00 0.00
7:53 pm 19:53 Partly Cloudy 70 21.1 44 6.7 39 39 SSW 8 13 29.78 1009 10 16 0.00 0.00
8:53 pm 20:53 Sunny 69 20.6 44 6.7 41 41 WSW 8 13 29.80 1009 10 16 0.00 0.00
9:53 pm 21:53 Clear 66 18.9 44 6.7 45 45 WNW 7 11 29.83 1010 10 16 0.00 0.00
10:53 pm 22:53 Mostly Clear 62 16.7 45 7.2 54 54 NNW 7 11 29.87 1012 10 16 0.00 0.00
11:53 pm 23:53 Clear 62 16.7 50 10 65 65 E 9 15 29.88 1012 10 16 0.00 0.00

Powered by AerisWeather